DW2144 Weather Reports


Display with metric or nautical units.
time (UTC)temp
F
wind
direction
speed
MPH
gust
MPH
rain 1hr
in
rain 24hr
in
rain mn
in
humidity
%
barometer
mb
20260502123019 53 332 0.0 0.0 0.00 0.00 0.00 87 1010.6
20260502121516 53 332 0.0 0.0 0.00 0.00 0.00 87 1010.8
20260502114514 53 332 0.0 0.0 0.00 0.00 0.00 87 1011.2
20260502113014 53 332 0.0 0.0 0.00 0.00 0.00 87 1010.7
20260502111513 53 332 0.0 0.0 0.00 0.00 0.00 87 1010.5
20260502110012 53 332 0.0 0.0 0.00 0.00 0.00 87 1010.6
20260502104515 53 332 0.0 0.0 0.00 0.00 0.00 87 1010.8
20260502103014 53 332 0.0 0.0 0.00 0.00 0.00 87 1010.7
20260502101529 53 332 0.0 0.0 0.00 0.00 0.00 87 1010.8
20260502091505 53 332 0.0 0.0 0.00 0.00 0.00 87 1011.3
20260502080109 53 332 0.0 0.0 0.00 0.00 0.00 86 1011.5
20260502070109 54 332 0.0 0.0 0.00 0.00 0.00 86 1011.5
20260502064556 54 332 0.0 0.0 0.00 0.00 0.00 86 1011.5
20260502063058 54 332 0.0 0.0 0.00 0.00 0.00 86 1011.6
20260502061559 54 332 0.0 0.0 0.00 0.00 0.00 86 1011.5
20260502060052 54 332 0.0 0.0 0.00 0.00 0.00 86 1011.7
20260502054556 54 332 0.0 0.0 0.00 0.00 0.00 86 1011.8
20260502053051 54 332 0.0 0.0 0.00 0.00 0.00 85 1011.7
20260502051615 55 332 0.0 0.0 0.00 0.00 0.00 84 1011.6
20260502050049 55 332 0.0 0.0 0.00 0.00 0.00 84 1011.8
20260502044549 56 332 0.0 0.0 0.00 0.00 0.00 83 1011.5
20260502043051 57 332 0.0 0.0 0.00 0.00 0.00 83 1011.4
20260502041548 57 332 0.0 0.0 0.00 0.00 0.00 82 1011.4
20260502040055 58 332 0.0 0.0 0.00 0.00 0.00 81 1011.2
20260502034547 59 332 0.0 0.0 0.00 0.00 0.00 79 1010.9
20260502033047 60 332 0.0 0.0 0.00 0.00 0.00 77 1010.8
20260502031546 61 332 0.0 0.0 0.00 0.00 0.00 76 1010.7
20260502030045 62 332 0.0 0.0 0.00 0.00 0.00 74 1010.5
20260502024544 64 332 0.0 1.0 0.00 0.00 0.00 73 1010.3
20260502023057 65 332 0.0 0.0 0.00 0.00 0.00 70 1010.2
20260502021544 66 332 0.0 3.0 0.00 0.00 0.00 69 1009.8
20260502020059 67 332 0.0 1.0 0.00 0.00 0.00 66 1010.0
20260502014548 68 332 0.0 3.0 0.00 0.00 0.00 64 1009.9
20260502013057 69 329 0.0 6.0 0.00 0.00 0.00 62 1009.8
20260502011542 70 327 0.0 5.0 0.00 0.00 0.00 62 1009.8
20260502010040 71 339 0.0 3.0 0.00 0.00 0.00 64 1009.9
20260502004541 71 292 1.0 5.0 0.00 0.00 0.00 61 1010.1
20260502003040 72 318 0.0 4.0 0.00 0.00 0.00 61 1010.1
20260502001557 72 324 0.0 4.0 0.00 0.00 0.00 60 1010.1
20260502000038 72 338 0.0 4.0 0.00 0.00 0.00 61 1010.1
20260501234536 73 312 1.0 4.0 0.00 0.00 0.00 60 1010.1
20260501233043 73 295 0.0 5.0 0.00 0.00 0.00 62 1010.4
20260501231534 73 331 0.0 3.0 0.00 0.00 0.00 63 1010.4
20260501230038 74 331 0.0 3.0 0.00 0.00 0.00 62 1010.4
20260501224528 74 319 0.0 4.0 0.00 0.00 0.00 63 1010.8
20260501223026 73 345 0.0 2.0 0.00 0.00 0.00 63 1011.0
20260501221522 73 345 0.0 2.0 0.00 0.00 0.00 63 1011.2
20260501220040 73 346 0.0 3.0 0.00 0.00 0.00 63 1011.5
20260501214517 72 346 0.0 3.0 0.00 0.00 0.00 64 1011.5
20260501213013 73 347 0.0 4.0 0.00 0.00 0.00 62 1011.9
20260501211511 72 345 0.0 2.0 0.00 0.00 0.00 62 1012.0
20260501210011 71 346 0.0 1.0 0.00 0.00 0.00 65 1012.0
20260501204505 71 346 0.0 2.0 0.00 0.00 0.00 67 1012.1
20260501203006 70 346 0.0 1.0 0.00 0.00 0.00 68 1012.2
20260501201606 70 346 0.0 1.0 0.00 0.00 0.00 68 1012.4
20260501200057 69 346 0.0 1.0 0.00 0.00 0.00 69 1012.6
20260501194554 68 346 0.0 2.0 0.00 0.00 0.00 73 1012.7
20260501193050 67 347 0.0 4.0 0.00 0.00 0.00 73 1012.9
20260501191557 67 318 0.0 3.0 0.00 0.00 0.00 76 1013.0
20260501190052 66 317 0.0 2.0 0.00 0.00 0.00 78 1013.1
20260501184541 65 317 0.0 0.0 0.00 0.00 0.00 79 1013.3
20260501183055 63 317 0.0 2.0 0.00 0.00 0.00 81 1013.4
20260501181554 62 317 0.0 1.0 0.00 0.00 0.00 84 1013.6
20260501180029 60 317 0.0 3.0 0.00 0.00 0.00 85 1013.8
20260501174525 58 317 0.0 0.0 0.00 0.00 0.00 87 1013.8
20260501173020 56 317 0.0 1.0 0.00 0.00 0.00 86 1013.7
20260501171518 55 317 0.0 0.0 0.00 0.00 0.00 86 1013.9
20260501170020 54 317 0.0 0.0 0.00 0.00 0.00 86 1014.0
20260501164524 53 317 0.0 1.0 0.00 0.00 0.00 86 1014.1
20260501163014 53 317 0.0 3.0 0.00 0.00 0.00 85 1014.2
20260501161506 52 317 0.0 0.0 0.00 0.00 0.00 85 1013.8
20260501160004 52 317 0.0 1.0 0.00 0.00 0.00 84 1013.8
20260501154501 52 317 0.0 1.0 0.00 0.00 0.00 84 1013.6
20260501153059 51 317 0.0 0.0 0.00 0.00 0.00 84 1013.7
20260501151556 51 317 0.0 0.0 0.00 0.00 0.00 85 1013.7
20260501150057 51 317 0.0 0.0 0.00 0.00 0.00 85 1013.5
20260501144558 50 317 0.0 0.0 0.00 0.00 0.00 85 1013.5
20260501143110 50 317 0.0 0.0 0.00 0.00 0.00 85 1013.3
20260501141552 50 317 0.0 0.0 0.00 0.00 0.00 85 1013.2